Location: Bernay
(48.6766°N, 2.9386°E)
Time: 22:56:29
(UTC+00:00)

USA 215 - Pass Details

Date: 12 January 2026
Orbit: 1098 x 1109 km, 123.0° (Epoch: 10 January)

Event Time Altitude Azimuth Distance (km) Brightness Sun altitude
Exits shadow 18:10:45 28° 70° (ENE) 1,948 4.0 -18.3°
Maximum altitude 18:14:17 58° 138° (SE) 1,275 3.4 -18.8°
Drops below altitude 10° 18:20:40 10° 217° (SW) 2,950 6.1 -19.9°
Sets 18:23:12 0° 221° (SW) 3,903 6.9 -20.3°
